DW4879 Weather Reports


time (UTC)temp
F
wind
direction
speed
knots
gust
knots
rain 1hr
in
rain 24hr
in
rain mn
in
humidity
%
barometer
mb
20260904175549 81 209 0.0 4.3 0.00 0.00 0.00 37 1024.1
20260904175100 80 30 0.9 6.1 0.00 0.00 0.00 37 1024.2
20260904174605 81 288 1.7 6.1 0.00 0.00 0.00 37 1024.2
20260904174006 81 261 2.6 6.1 0.00 0.00 0.00 37 1024.2
20260904173605 81 173 2.6 5.2 0.00 0.00 0.00 37 1024.2
20260904173013 81 153 0.9 7.0 0.00 0.00 0.00 37 1024.2
20260904172606 80 175 2.6 7.0 0.00 0.00 0.00 37 1024.2
20260904172055 81 171 2.6 4.3 0.00 0.00 0.00 37 1024.3
20260904171622 80 186 0.9 5.2 0.00 0.00 0.00 38 1024.2
20260904171055 80 343 2.6 5.2 0.00 0.00 0.00 38 1024.2
20260904170546 79 350 0.9 3.5 0.00 0.00 0.00 39 1024.3
20260904170055 78 343 0.0 4.3 0.00 0.00 0.00 39 1024.1
20260904165603 77 138 2.6 4.3 0.00 0.00 0.00 40 1024.2
20260904165006 78 284 1.7 7.0 0.00 0.00 0.00 41 1024.3
20260904164601 78 279 2.6 7.0 0.00 0.00 0.00 40 1024.2
20260904164003 78 286 3.5 7.0 0.00 0.00 0.00 41 1024.3
20260904163558 78 146 1.7 5.2 0.00 0.00 0.00 41 1024.2
20260904163001 77 278 1.7 3.5 0.00 0.00 0.00 40 1024.2
20260904162559 77 349 0.9 4.3 0.00 0.00 0.00 41 1024.3
20260904162048 77 284 1.7 5.2 0.00 0.00 0.00 41 1024.1
20260904161556 77 292 0.0 5.2 0.00 0.00 0.00 41 1024.2
20260904161106 76 162 1.7 5.2 0.00 0.00 0.00 41 1024.2
20260904160511 76 63 1.7 4.3 0.00 0.00 0.00 42 1024.1
20260904160107 75 61 1.7 3.5 0.00 0.00 0.00 44 1024.1
20260904155506 74 134 0.0 3.5 0.00 0.00 0.00 45 1024.0
20260904155102 73 75 0.9 3.5 0.00 0.00 0.00 47 1024.0
20260904154503 72 61 0.9 2.6 0.00 0.00 0.00 50 1024.1
20260904154015 71 126 0.9 2.6 0.00 0.00 0.00 50 1024.1
20260904153502 70 107 0.9 1.7 0.00 0.00 0.00 51 1024.0
20260904153017 70 96 0.0 1.7 0.00 0.00 0.00 51 1024.0
20260904152501 70 87 0.0 1.7 0.00 0.00 0.00 50 1024.0
20260904152009 70 97 0.9 2.6 0.00 0.00 0.00 50 1024.0
20260904151606 70 111 0.9 2.6 0.00 0.00 0.00 50 1024.0
20260904151054 70 111 0.9 2.6 0.00 0.00 0.00 50 1023.9
20260904150602 70 126 0.9 3.5 0.00 0.00 0.00 50 1023.9
20260904150005 70 86 1.7 5.2 0.00 0.00 0.00 51 1023.8
20260904145513 70 133 1.7 4.3 0.00 0.00 0.00 52 1023.9
20260904145020 69 134 2.6 5.2 0.00 0.00 0.00 52 1023.9
20260904144528 68 138 1.7 5.2 0.00 0.00 0.00 53 1023.8
20260904144036 68 103 2.6 5.2 0.00 0.00 0.00 52 1023.7
20260904143548 68 117 2.6 5.2 0.00 0.00 0.00 51 1023.7
20260904143104 68 99 2.6 5.2 0.00 0.00 0.00 51 1023.7
20260904142600 68 100 2.6 6.1 0.00 0.00 0.00 52 1023.6
20260904142047 67 144 3.5 5.2 0.00 0.00 0.00 52 1023.6
20260904141605 66 115 1.7 5.2 0.00 0.00 0.00 52 1023.5
20260904141106 66 90 3.5 5.2 0.00 0.00 0.00 52 1023.5
20260904140505 65 120 2.6 6.1 0.00 0.00 0.00 52 1023.5
20260904140030 65 119 2.6 6.1 0.00 0.00 0.00 53 1023.5
20260904135505 64 115 2.6 5.2 0.00 0.00 0.00 53 1023.4
20260904135012 64 133 1.7 5.2 0.00 0.00 0.00 54 1023.3
20260904134501 64 105 1.7 3.5 0.00 0.00 0.00 54 1023.3
20260904134009 63 82 1.7 3.5 0.00 0.00 0.00 54 1023.2
20260904133608 63 104 1.7 6.1 0.00 0.00 0.00 55 1023.2
20260904133057 63 101 1.7 6.1 0.00 0.00 0.00 55 1023.1
20260904132605 62 101 2.6 5.2 0.00 0.00 0.00 56 1023.1
20260904132056 62 103 1.7 5.2 0.00 0.00 0.00 57 1023.0
20260904131548 62 94 2.6 5.2 0.00 0.00 0.00 57 1022.9
20260904131055 62 103 1.7 2.6 0.00 0.00 0.00 57 1022.9
20260904130604 62 119 0.0 0.9 0.00 0.00 0.00 57 1022.8
20260904130007 62 119 0.0 1.7 0.00 0.00 0.00 56 1022.8
20260904125603 62 119 0.0 2.6 0.00 0.00 0.00 56 1022.7
20260904125007 62 117 0.9 3.5 0.00 0.00 0.00 56 1022.6
20260904124603 62 138 1.7 5.2 0.00 0.00 0.00 56 1022.5
20260904124004 62 123 2.6 5.2 0.00 0.00 0.00 56 1022.5
20260904123600 62 101 1.7 4.3 0.00 0.00 0.00 56 1022.4
20260904123049 62 117 3.5 5.2 0.00 0.00 0.00 56 1022.4
20260904122558 62 123 2.6 5.2 0.00 0.00 0.00 57 1022.3
20260904122049 62 111 2.6 5.2 0.00 0.00 0.00 57 1022.2
20260904121559 62 107 3.5 5.2 0.00 0.00 0.00 57 1022.2
20260904121051 62 106 3.5 4.3 0.00 0.00 0.00 57 1022.2
20260904120540 63 101 2.6 5.2 0.00 0.00 0.00 57 1022.2
20260904120051 63 91 2.6 3.5 0.00 0.00 0.00 56 1022.2
20260904115558 63 102 1.7 3.5 0.00 0.00 0.00 55 1022.2
20260904115106 63 105 1.7 4.3 0.00 0.00 0.00 55 1022.2
20260904114555 63 105 2.6 4.3 0.00 0.00 0.00 54 1022.0
20260904114102 64 72 2.6 4.3 0.00 0.00 0.00 54 1021.9
20260904113555 64 82 2.6 4.3 0.00 0.00 0.00 54 1022.0
20260904113103 64 84 3.5 7.0 0.00 0.00 0.00 54 1022.0
20260904112509 64 107 2.6 7.0 0.00 0.00 0.00 54 1022.0
20260904112100 64 71 2.6 5.2 0.00 0.00 0.00 54 1021.9
20260904111504 64 79 2.6 4.3 0.00 0.00 0.00 54 1021.9
20260904111012 64 95 1.7 4.3 0.00 0.00 0.00 54 1022.0
20260904110520 64 104 1.7 4.3 0.00 0.00 0.00 54 1021.9
20260904110027 64 96 1.7 4.3 0.00 0.00 0.00 54 1022.0
20260904105538 64 63 1.7 7.0 0.00 0.00 0.00 54 1022.0
20260904105045 64 78 3.5 7.0 0.00 0.00 0.00 55 1021.9
20260904104556 64 83 2.6 6.1 0.00 0.00 0.00 55 1021.9
20260904104042 64 77 2.6 5.2 0.00 0.00 0.00 56 1021.9
20260904103549 64 68 2.6 4.3 0.00 0.00 0.00 56 1021.8
20260904103057 64 84 1.7 4.3 0.00 0.00 0.00 55 1021.9
20260904102605 64 92 2.6 5.2 0.00 0.00 0.00 55 1021.8
20260904102008 64 71 3.5 5.2 0.00 0.00 0.00 56 1021.8
20260904101516 64 92 1.7 5.2 0.00 0.00 0.00 57 1021.7
20260904101023 65 87 2.6 6.1 0.00 0.00 0.00 57 1021.7
20260904100530 65 119 2.6 3.5 0.00 0.00 0.00 58 1021.5
20260904100009 65 96 1.7 3.5 0.00 0.00 0.00 58 1021.5
20260904095602 65 98 1.7 3.5 0.00 0.00 0.00 59 1021.3
20260904095103 65 78 0.9 2.6 0.00 0.00 0.00 60 1021.4
20260904094506 65 94 0.0 1.7 0.00 0.00 0.00 60 1021.3
20260904094013 65 65 0.0 1.7 0.00 0.00 0.00 60 1021.2
20260904093521 65 65 0.9 3.5 0.00 0.00 0.00 60 1021.2
20260904093029 65 80 0.9 3.5 0.00 0.00 0.00 60 1021.3
20260904092536 65 101 1.7 3.5 0.00 0.00 0.00 60 1021.1
20260904092044 65 89 1.7 2.6 0.00 0.00 0.00 60 1021.2
20260904091552 65 5 0.0 1.7 0.00 0.00 0.00 59 1021.2
20260904091042 65 5 0.0 1.7 0.00 0.00 0.00 59 1021.2
20260904090550 66 5 0.0 1.7 0.00 0.00 0.00 59 1021.2
20260904090108 66 5 0.0 1.7 0.00 0.00 0.00 59 1021.1
20260904085502 66 5 0.0 1.7 0.00 0.00 0.00 59 1021.0
20260904085056 66 5 0.9 1.7 0.00 0.00 0.00 58 1021.0
20260904084612 66 116 0.9 1.7 0.00 0.00 0.00 58 1021.1
20260904084100 66 116 0.0 1.7 0.00 0.00 0.00 57 1021.2
20260904083604 67 116 0.0 1.7 0.00 0.00 0.00 57 1021.2
20260904083057 67 116 0.0 1.7 0.00 0.00 0.00 57 1021.2
20260904082550 67 116 0.0 1.7 0.00 0.00 0.00 57 1021.3
20260904082055 67 116 0.9 2.6 0.00 0.00 0.00 56 1021.3
20260904081603 67 116 1.7 2.6 0.00 0.00 0.00 56 1021.3
20260904081005 68 129 1.7 1.7 0.00 0.00 0.00 55 1021.3
20260904080602 68 129 0.9 1.7 0.00 0.00 0.00 55 1021.3
20260904080004 68 129 0.9 2.6 0.00 0.00 0.00 55 1021.3
20260904075600 68 129 1.7 2.6 0.00 0.00 0.00 55 1021.2
20260904075006 69 124 0.9 2.6 0.00 0.00 0.00 54 1021.3
20260904074607 69 140 0.9 2.6 0.00 0.00 0.00 54 1021.2
20260904074051 69 140 0.9 2.6 0.00 0.00 0.00 54 1021.2
20260904073600 69 151 0.9 3.5 0.00 0.00 0.00 54 1021.3
20260904073052 69 161 1.7 5.2 0.00 0.00 0.00 54 1021.3
20260904072542 69 142 2.6 5.2 0.00 0.00 0.00 53 1021.2
20260904072049 70 143 0.9 2.6 0.00 0.00 0.00 53 1021.2
20260904071607 70 159 0.9 3.5 0.00 0.00 0.00 53 1021.2
20260904071001 70 165 2.6 4.3 0.00 0.00 0.00 52 1021.3
20260904070557 71 141 2.6 3.5 0.00 0.00 0.00 52 1021.2
20260904070107 71 161 0.9 2.6 0.00 0.00 0.00 51 1021.3
20260904065554 71 185 0.9 5.2 0.00 0.00 0.00 51 1021.3
20260904065104 71 169 2.6 5.2 0.00 0.00 0.00 51 1021.3
20260904064555 71 151 2.6 5.2 0.00 0.00 0.00 51 1021.3
20260904064047 71 168 2.6 6.1 0.00 0.00 0.00 51 1021.2
20260904063555 71 142 3.5 6.1 0.00 0.00 0.00 50 1021.2
20260904063045 72 155 2.6 7.0 0.00 0.00 0.00 50 1021.1
20260904062553 72 142 2.6 7.0 0.00 0.00 0.00 50 1021.1
20260904062103 72 166 3.5 7.8 0.00 0.00 0.00 50 1021.1
20260904061504 72 154 4.3 7.8 0.00 0.00 0.00 50 1021.0
20260904061059 72 165 3.5 7.0 0.00 0.00 0.00 49 1021.1
20260904060504 72 171 3.5 7.0 0.00 0.00 0.00 49 1021.0
20260904060010 72 126 4.3 8.7 0.00 0.00 0.00 49 1021.0
20260904055604 72 145 3.5 8.7 0.00 0.00 0.00 49 1021.0
20260904055008 72 124 3.5 7.8 0.00 0.00 0.00 49 1021.1
20260904054606 72 160 4.3 7.8 0.00 0.00 0.00 49 1021.1
20260904054007 73 173 2.6 9.6 0.00 0.00 0.00 49 1021.1
20260904053603 73 146 4.3 9.6 0.00 0.00 0.00 49 1021.0
20260904053102 73 150 5.2 9.6 0.00 0.00 0.00 48 1021.0
20260904052603 73 162 4.3 8.7 0.00 0.00 0.00 48 1020.9
20260904052056 73 167 5.2 9.6 0.00 0.00 0.00 47 1021.0
20260904051546 74 161 2.6 7.8 0.00 0.00 0.00 47 1021.0
20260904051054 74 167 4.3 7.8 0.00 0.00 0.00 46 1021.0
20260904050603 74 160 2.6 6.1 0.00 0.00 0.00 47 1021.0
20260904050005 74 180 3.5 9.6 0.00 0.00 0.00 47 1020.9
20260904045559 74 144 5.2 12.2 0.00 0.00 0.00 47 1021.0
20260904045003 74 156 6.1 12.2 0.00 0.00 0.00 47 1021.0
20260904044600 75 173 6.1 9.6 0.00 0.00 0.00 46 1021.0
20260904044003 75 157 6.1 8.7 0.00 0.00 0.00 45 1021.0
20260904043602 75 192 5.2 13.0 0.00 0.00 0.00 45 1021.0
20260904043104 75 164 7.0 13.0 0.00 0.00 0.00 46 1021.0
20260904042604 75 151 5.2 13.0 0.00 0.00 0.00 46 1020.9
20260904042053 75 161 6.1 13.9 0.00 0.00 0.00 45 1021.0
20260904041601 75 140 7.0 13.9 0.00 0.00 0.00 44 1021.0
20260904041053 75 163 7.0 11.3 0.00 0.00 0.00 40 1021.0
20260904040543 75 121 1.7 3.5 0.00 0.00 0.00 35 1021.0
20260904040051 76 139 2.6 7.0 0.00 0.00 0.00 35 1020.8
20260904035559 76 143 3.5 7.0 0.00 0.00 0.00 35 1020.9
20260904035003 76 121 1.7 2.6 0.00 0.00 0.00 34 1020.8
20260904034557 76 110 1.7 1.7 0.00 0.00 0.00 34 1020.7
20260904034105 76 126 0.9 1.7 0.00 0.00 0.00 34 1020.7
20260904033559 76 126 0.9 1.7 0.00 0.00 0.00 34 1020.7
20260904033105 76 126 0.9 1.7 0.00 0.00 0.00 33 1020.7
20260904032558 76 126 0.9 1.7 0.00 0.00 0.00 33 1020.6
20260904032050 76 132 0.9 2.6 0.00 0.00 0.00 33 1020.6
20260904031558 76 132 1.7 2.6 0.00 0.00 0.00 33 1020.5
20260904031054 76 161 0.9 1.7 0.00 0.00 0.00 32 1020.5
20260904030541 76 174 0.9 0.9 0.00 0.00 0.00 32 1020.4
20260904030049 76 263 0.0 0.0 0.00 0.00 0.00 32 1020.3
20260904025559 76 263 0.0 0.0 0.00 0.00 0.00 32 1020.3
20260904025105 77 263 0.0 0.0 0.00 0.00 0.00 32 1020.3
20260904024556 77 263 0.0 0.0 0.00 0.00 0.00 32 1020.3
20260904024105 77 263 0.0 0.0 0.00 0.00 0.00 31 1020.2
20260904023556 77 263 0.0 0.0 0.00 0.00 0.00 31 1020.1
20260904023105 78 263 0.0 0.0 0.00 0.00 0.00 31 1020.1
20260904022558 78 263 0.0 0.0 0.00 0.00 0.00 31 1020.2
20260904022046 78 263 0.0 0.0 0.00 0.00 0.00 31 1020.1
20260904021557 79 263 0.0 0.0 0.00 0.00 0.00 30 1020.0
20260904021102 79 263 0.0 0.0 0.00 0.00 0.00 30 1020.0
20260904020505 79 263 0.0 0.0 0.00 0.00 0.00 30 1019.9
20260904020028 80 263 0.0 0.0 0.00 0.00 0.00 29 1019.9
20260904015536 80 263 0.0 0.0 0.00 0.00 0.00 29 1019.9
20260904015044 80 263 0.0 0.0 0.00 0.00 0.00 29 1020.0
20260904014556 81 263 0.0 0.0 0.00 0.00 0.00 29 1019.9
20260904014100 81 263 0.0 0.9 0.00 0.00 0.00 28 1020.0
20260904013502 82 263 0.0 1.7 0.00 0.00 0.00 28 1019.9
20260904013112 82 263 0.0 1.7 0.00 0.00 0.00 28 1019.9
20260904012502 82 263 0.9 3.5 0.00 0.00 0.00 27 1020.0
20260904012058 82 259 1.7 3.5 0.00 0.00 0.00 28 1020.0
20260904011553 82 251 0.9 3.5 0.00 0.00 0.00 27 1020.0
20260904011056 83 231 0.9 4.3 0.00 0.00 0.00 27 1020.0
20260904010604 83 277 1.7 6.1 0.00 0.00 0.00 27 1020.0
20260904010010 83 236 2.6 6.1 0.00 0.00 0.00 27 1020.0
20260904005603 84 209 0.9 5.2 0.00 0.00 0.00 26 1020.0
20260904005004 84 232 1.7 7.8 0.00 0.00 0.00 25 1020.0
20260904004602 85 276 3.5 7.8 0.00 0.00 0.00 25 1020.0
20260904004006 85 270 0.9 7.0 0.00 0.00 0.00 25 1020.1
20260904003601 85 267 3.5 11.3 0.00 0.00 0.00 25 1020.0
20260904003053 85 205 1.7 11.3 0.00 0.00 0.00 24 1020.1
20260904002604 86 294 1.7 5.2 0.00 0.00 0.00 25 1020.0
20260904002055 86 312 1.7 7.0 0.00 0.00 0.00 25 1020.0
20260904001543 86 329 3.5 7.0 0.00 0.00 0.00 26 1020.1
20260904001052 87 190 0.9 6.1 0.00 0.00 0.00 25 1020.1
20260904000559 87 194 0.9 7.0 0.00 0.00 0.00 25 1020.2
20260904000002 87 196 1.7 6.1 0.00 0.00 0.00 25 1020.1
20260903235557 87 168 1.7 4.3 0.00 0.00 0.00 25 1020.2
20260903235104 87 155 1.7 7.0 0.00 0.00 0.00 25 1020.1
20260903234558 87 220 2.6 5.2 0.00 0.00 0.00 25 1020.3
20260903234001 87 213 0.9 7.8 0.00 0.00 0.00 25 1020.2
20260903233557 87 134 3.5 7.8 0.00 0.00 0.00 25 1020.3
20260903233052 87 155 3.5 8.7 0.00 0.00 0.00 25 1020.3
20260903232559 87 169 5.2 8.7 0.00 0.00 0.00 25 1020.3
20260903232052 87 185 3.5 7.8 0.00 0.00 0.00 25 1020.4
20260903231543 87 178 3.5 8.7 0.00 0.00 0.00 25 1020.4
20260903231050 87 171 3.5 8.7 0.00 0.00 0.00 26 1020.4
20260903230542 87 304 1.7 6.1 0.00 0.00 0.00 25 1020.5
20260903230049 87 203 3.5 6.1 0.00 0.00 0.00 25 1020.5
20260903225557 88 186 1.7 4.3 0.00 0.00 0.00 25 1020.5
20260903225106 88 244 0.9 7.0 0.00 0.00 0.00 25 1020.5
20260903224555 88 220 0.9 6.1 0.00 0.00 0.00 25 1020.6
20260903224105 88 263 0.9 4.3 0.00 0.00 0.00 25 1020.6
20260903223559 88 132 0.9 7.8 0.00 0.00 0.00 25 1020.7
20260903223111 88 197 4.3 7.8 0.00 0.00 0.00 25 1020.8
20260903222557 88 259 1.7 5.2 0.00 0.00 0.00 26 1020.7
20260903222048 88 257 0.9 7.0 0.00 0.00 0.00 26 1020.8
20260903221556 88 145 2.6 9.6 0.00 0.00 0.00 26 1020.9
20260903221102 88 235 5.2 9.6 0.00 0.00 0.00 26 1021.0
20260903220505 87 255 3.5 7.0 0.00 0.00 0.00 26 1021.0
20260903220107 87 203 4.3 7.0 0.00 0.00 0.00 26 1020.9
20260903215549 87 15 0.9 5.2 0.00 0.00 0.00 26 1021.1
20260903215056 86 176 1.7 5.2 0.00 0.00 0.00 27 1021.2
20260903214604 86 340 0.9 3.5 0.00 0.00 0.00 27 1021.2
20260903214007 85 329 1.7 5.2 0.00 0.00 0.00 28 1021.3
20260903213605 85 292 2.6 10.4 0.00 0.00 0.00 27 1021.3
20260903213013 85 329 6.1 10.4 0.00 0.00 0.00 27 1021.2
20260903212605 86 294 2.6 7.8 0.00 0.00 0.00 27 1021.3
20260903212006 86 271 4.3 7.8 0.00 0.00 0.00 26 1021.4
20260903211515 87 217 0.9 7.0 0.00 0.00 0.00 27 1021.5
20260903211022 87 229 3.5 8.7 0.00 0.00 0.00 27 1021.5
20260903210531 87 215 1.7 8.7 0.00 0.00 0.00 27 1021.6
20260903210048 86 201 0.9 8.7 0.00 0.00 0.00 28 1021.6
20260903205546 85 215 5.2 8.7 0.00 0.00 0.00 29 1021.8
20260903205037 84 96 1.7 7.8 0.00 0.00 0.00 29 1021.8
20260903204546 85 96 3.5 7.8 0.00 0.00 0.00 28 1021.8
20260903204055 85 169 4.3 7.8 0.00 0.00 0.00 28 1021.9
20260903203603 85 188 1.7 7.8 0.00 0.00 0.00 28 1021.9
20260903203052 85 275 2.6 7.8 0.00 0.00 0.00 28 1022.0
20260903202600 86 193 1.7 8.7 0.00 0.00 0.00 27 1022.0
20260903202053 87 193 3.5 8.7 0.00 0.00 0.00 27 1021.9
20260903201601 86 226 4.3 13.0 0.00 0.00 0.00 27 1022.0
20260903201053 85 180 5.2 9.6 0.00 0.00 0.00 29 1022.0
20260903200543 83 234 2.6 11.3 0.00 0.00 0.00 30 1022.1
20260903200058 82 252 7.8 11.3 0.00 0.00 0.00 30 1022.0
20260903195546 82 265 6.1 8.7 0.00 0.00 0.00 30 1022.1
20260903195052 82 251 0.0 7.8 0.00 0.00 0.00 31 1022.2
20260903194600 82 238 5.2 9.6 0.00 0.00 0.00 31 1022.3
20260903194002 83 340 5.2 10.4 0.00 0.00 0.00 29 1022.4
20260903193600 83 292 2.6 8.7 0.00 0.00 0.00 29 1022.5
20260903193004 83 271 4.3 11.3 0.00 0.00 0.00 30 1022.6
20260903192602 83 9 5.2 11.3 0.00 0.00 0.00 29 1022.6
20260903192052 84 331 1.7 7.0 0.00 0.00 0.00 30 1022.8
20260903191559 83 133 3.5 8.7 0.00 0.00 0.00 30 1022.9
20260903191053 82 294 4.3 11.3 0.00 0.00 0.00 30 1022.9
20260903190544 83 271 4.3 11.3 0.00 0.00 0.00 30 1022.9
20260903190054 83 247 2.6 7.8 0.00 0.00 0.00 30 1023.0
20260903185559 82 238 2.6 8.7 0.00 0.00 0.00 31 1023.0
20260903185002 82 268 2.6 6.1 0.00 0.00 0.00 31 1023.1
20260903184556 81 221 2.6 7.8 0.00 0.00 0.00 31 1023.2
20260903184104 81 313 2.6 8.7 0.00 0.00 0.00 31 1023.3
20260903183556 81 262 3.5 8.7 0.00 0.00 0.00 32 1023.3
20260903183105 81 334 4.3 8.7 0.00 0.00 0.00 31 1023.4
20260903182558 81 171 1.7 4.3 0.00 0.00 0.00 31 1023.5
20260903182049 80 19 0.0 7.8 0.00 0.00 0.00 33 1023.5
20260903181556 79 223 2.6 8.7 0.00 0.00 0.00 32 1023.6
20260903181104 80 268 4.3 8.7 0.00 0.00 0.00 33 1023.6
20260903180506 79 341 0.9 7.8 0.00 0.00 0.00 34 1023.7
20260903180053 79 5 1.7 9.6 0.00 0.00 0.00 34 1023.8